Location: M�enp��
(61.1167°N, 23.0833°E)
Time: 01:33:23
(UTC+00:00)

Daily predictions for brighter satellites

Satellite Brightness Start Highest point End
(mag) Time Altitude Azimuth Time Altitude Azimuth Time Altitude Azimuth
Cosmos 1151 Rocket 4.4 00:04:19 31° E 00:04:42 31° E 00:08:35 10° NNE
UNK 4.4 00:08:09 46° NW 00:08:09 46° NW 00:11:32 10° NNW
Cosmos 1943 Rocket 3.5 00:05:34 22° WNW 00:08:22 35° NNW 00:13:27 10° NE
SL-8 Rocket 4.1 00:03:17 10° NNW 00:09:23 54° W 00:09:32 54° W
Cosmos 1633 Rocket 3.5 00:05:06 10° NNW 00:08:36 56° NNW 00:08:36 56° NNW
Cosmos 1934 Rocket 4.5 00:04:16 10° N 00:10:15 55° ENE 00:14:20 21° SE
CZ-3B R/B 4.4 00:11:50 14° ESE 00:11:50 14° ESE 00:14:46 10° E
NPP 4.2 00:07:20 10° NNE 00:12:37 51° E 00:13:43 44° SE
ATLAS 2AS CENTAUR R/B 2.9 00:05:11 10° WNW 00:13:04 88° NNE 00:20:23 10° ESE
Meteor 1-22 4.4 00:08:51 10° NNW 00:14:21 88° WSW 00:14:49 76° S
IRAS Rocket 4.1 00:14:35 72° SW 00:14:51 73° WSW 00:20:29 10° NNW
ATLAS 5 CENTAUR R/B 1.9 00:16:04 67° E 00:16:04 67° E 00:20:44 10° ENE
Cosmos 292 Rocket 4.1 00:16:02 57° NW 00:16:02 57° NW 00:20:44 10° NNE
Cosmos 1933 Rocket 4.1 00:15:02 10° N 00:19:22 56° ENE 00:19:51 52° E
Cosmos 1666 Rocket 4.2 00:15:45 10° NNW 00:19:07 48° NW 00:19:07 48° NW
Cosmos 990 Rocket 4.3 00:19:31 10° NNW 00:24:43 66° NE 00:29:54 10° SE
CZ-4 R/B 4.3 00:20:47 10° NNE 00:25:27 47° WNW 00:25:27 47° WNW
Cosmos 2366 rocket 4.2 00:20:57 10° NNW 00:27:01 51° W 00:27:25 50° WSW
Cosmos 1933 4.0 00:28:30 48° E 00:28:30 48° E 00:32:26 10° NNE
Meteor 1-20 Rocket 4.0 00:23:20 10° NNW 00:28:50 78° WSW 00:29:27 69° SSW
Cosmos 1606 3.3 00:31:07 54° NE 00:31:07 54° NE 00:34:13 10° NNE
Genesis I 3.8 00:32:49 54° ENE 00:32:49 54° ENE 00:35:53 10° ENE
Cosmos 2218 Rocket 4.3 00:27:05 10° NNW 00:33:09 46° W 00:33:36 46° WSW
Meteor 1-14 Rocket 4.3 00:29:33 10° NNW 00:35:13 77° ENE 00:37:52 33° SSE
RESURS DK-1 4.5 00:31:40 10° NW 00:35:14 26° NNE 00:38:48 10° ENE
CZ-4C R/B 2.7 00:30:27 18° WNW 00:35:18 78° NNE 00:42:53 10° E
ADEOS II 3.0 00:30:19 10° NNE 00:35:21 43° E 00:37:24 30° SSE
SJ 16-02 1.3 00:35:04 10° NNW 00:39:20 83° NNW 00:39:20 83° NNW
Cosmos 2369 4.3 00:38:42 39° SSE 00:40:12 48° ESE 00:45:42 10° NE
Cosmos 2297 Rocket 4.3 00:37:19 10° WNW 00:38:12 13° WNW 00:38:12 13° WNW
USA 234 3.3 00:35:21 10° ESE 00:41:46 56° SSW 00:43:28 44° WSW
Cosmos 1605 Rocket 4.5 00:38:20 10° NNW 00:44:42 63° ENE 00:51:04 10° SSE
Cosmos 2221 3.6 00:45:57 33° NW 00:45:57 33° NW 00:49:33 10° N
Nadezhda 3 Rocket 4.2 00:43:12 35° SSE 00:45:52 66° E 00:51:59 10° NNE
COSMOS 2455 3.6 00:41:55 10° WNW 00:47:50 51° NNE 00:53:45 10° E
Cosmos 1238 Rocket 4.0 00:43:39 10° NNW 00:50:22 83° ENE 00:54:28 23° SSE
NOSS 2-1 (C) 3.3 00:50:48 77° NNE 00:50:48 77° NNE 00:55:07 10° ENE
CZ-4B R/B 4.0 00:47:40 10° NNE 00:52:42 56° ESE 00:54:39 35° SSE
Cosmos 1241 Rocket 4.4 00:52:41 47° WSW 00:54:44 88° NNW 01:01:17 10° ENE
Cosmos 389 Rocket 3.9 00:54:26 31° ESE 00:54:59 33° E 00:58:17 10° NNE
NOSS 2-1 (D) 3.3 00:55:43 76° NNW 00:55:43 76° NNW 01:00:11 10° ENE
Cosmos 2369 Rocket 3.6 00:52:18 16° WNW 00:56:04 33° NNW 01:01:13 10° NE
Meteor 1-28 Rocket 3.4 00:58:15 63° NNW 00:58:15 63° NNW 01:01:26 10° NNW
SL-19 R/B 4.2 00:53:04 10° NNE 00:58:14 63° WNW 00:59:17 52° WSW
Cosmos 1697 Rocket 2.8 00:59:13 45° S 01:00:51 66° SE 01:06:27 10° NE
Cosmos 1782 3.5 01:01:01 41° SE 01:01:56 50° E 01:05:52 10° NNE
Cosmos 2263 Rocket 2.2 00:57:08 10° NW 01:02:39 55° WSW 01:03:49 46° SSW
Celestis-02/Orion 38 4.4 00:58:07 10° SE 01:03:20 87° SW 01:08:29 10° NW
USA 306 4.4 01:04:33 24° SE 01:04:33 24° SE 01:07:16 10° ESE
Cosmos 1992 Rocket 4.1 01:03:14 51° WSW 01:04:21 65° NW 01:09:35 10° NNE
H-2A R/B 3.2 01:00:27 10° SE 01:04:43 46° ENE 01:09:04 10° NNW
Cosmos 2181 Rocket 4.3 01:05:09 40° WSW 01:06:50 51° WNW 01:12:57 10° N
Cosmos 1844 Rocket 3.0 01:01:18 10° NW 01:06:57 69° NE 01:12:36 10° SE
Cosmos 1980 Rocket 2.8 01:05:32 31° S 01:07:53 49° ESE 01:13:19 10° NE
ASTEX 1 4.1 01:03:33 10° NNE 01:08:28 53° E 01:11:56 19° SSE
Cosmos 2278 Rocket 3.6 01:05:35 10° NW 01:10:54 38° NNE 01:16:11 10° E
Cosmos 2360 4.5 01:09:10 38° S 01:11:19 63° ESE 01:16:59 10° NE
Cosmos 220 Rocket 3.9 01:11:56 61° W 01:12:22 66° NW 01:16:42 10° NNE
Cosmos 1898 Rocket 3.4 01:07:21 10° NW 01:12:37 77° WSW 01:17:53 10° SSE
Cosmos 972 Rocket 4.0 01:11:55 43° S 01:13:28 72° ESE 01:18:36 10° NNE
Cosmos 1656 3.6 01:12:56 46° WSW 01:14:36 77° NW 01:20:14 10° NE
Meteor 1-11 Rocket 4.1 01:08:47 10° NNW 01:14:37 66° ENE 01:20:16 10° SSE
Cosmos 1844 4.0 01:09:40 10° NW 01:15:17 67° NE 01:20:50 10° SE
Cosmos 1500 3.1 01:11:42 10° NNW 01:15:35 87° ENE 01:16:13 61° SSE
Cosmos 2322 Rocket 4.3 01:13:41 10° SSE 01:17:56 22° ESE 01:22:11 10° NE
Cosmos 858 Rocket 4.4 01:14:07 10° NW 01:19:21 86° WSW 01:24:34 10° SSE
SL-08 R/B 3.2 01:18:49 49° SSW 01:19:49 63° WSW 01:24:26 10° NNW
Cosmos 1470 Rocket 4.1 01:16:10 10° NNW 01:19:55 40° WNW 01:19:55 40° WNW
Cosmos 1666 3.3 01:16:48 10° N 01:20:36 55° ENE 01:24:20 10° SSE
Helios 1B rocket 3.9 01:19:03 10° N 01:22:22 24° NW 01:22:41 23° WNW
Cosmos 1818 3.6 01:20:27 40° WSW 01:22:27 78° NNW 01:27:57 10° ENE
AQUA 3.8 01:18:24 10° NNE 01:23:10 69° WNW 01:24:26 47° SW
Lacrosse 5 2.5 01:22:28 37° S 01:23:28 41° SSE 01:28:13 10° E
Resurs 1-4 Rocket 2.3 01:20:10 10° NNE 01:25:20 55° WNW 01:26:56 40° WSW
SL-16 R/B 3.8 01:24:52 10° SSE 01:29:39 29° ESE 01:34:28 10° NE
Cosmos 921 Rocket 4.0 01:28:18 23° SSE 01:30:25 40° ESE 01:34:23 10° NE
CZ-2D R/B 2.4 01:26:43 10° NNE 01:31:53 52° WNW 01:33:36 37° WSW
Cosmos 1937 Rocket 3.3 01:27:06 10° NW 01:32:16 73° WSW 01:37:24 10° SSE
USA 307 4.0 01:32:42 28° S 01:32:49 28° SSE 01:36:30 10° ESE
Cosmos 405 4.0 01:34:03 32° NW 01:34:03 32° NW 01:37:01 10° N
Cosmos 1812 3.8 01:33:08 18° SSE 01:35:37 42° E 01:39:19 10° NNE
SL-16 R/B 3.7 01:35:43 23° W 01:35:44 23° W 01:40:33 10° NW
USA 308 4.0 01:35:57 29° S 01:36:11 29° SSE 01:39:52 10° ESE
ERBS 4.4 01:39:26 16° SSE 01:39:44 16° SE 01:41:55 10° ESE
NOSS 3-4 (A) 3.8 01:33:39 10° WNW 01:40:07 52° SW 01:47:18 10° SSE
NOSS 3-4 (C) 3.8 01:33:45 10° WNW 01:40:14 52° SW 01:47:25 10° SSE
Cosmos 1151 Rocket 3.3 01:41:11 42° WSW 01:42:07 51° WNW 01:46:25 10° N
Cosmos 1536 3.1 01:40:41 10° NNW 01:44:47 69° ENE 01:48:51 10° SSE
USA 32 4.3 01:39:42 10° N 01:44:59 69° ENE 01:50:13 10° SSE
Cosmos 1125 Rocket 4.3 01:39:49 10° NNW 01:45:03 53° NE 01:50:13 10° ESE
IRIDIUM 103 4.4 01:40:34 10° N 01:45:50 82° E 01:51:05 10° S
ARIANE 5 R/B 2.7 01:41:16 10° NNE 01:46:24 71° ESE 01:50:05 19° S
USA-17 4.3 01:45:55 51° W 01:46:39 78° SSW 01:50:31 10° ESE
Cosmos 1515 Rocket 3.5 01:45:17 37° SSW 01:46:57 72° WNW 01:51:24 10° NNE
CZ-2D R/B 4.1 01:43:17 10° NNE 01:47:28 57° ESE 01:50:45 16° S
NOSS 2-1 (E) 3.7 01:46:40 33° WNW 01:48:19 66° N 01:53:12 10° ENE
Meteor 1-26 Rocket 4.1 01:45:38 30° SSW 01:48:26 74° WNW 01:53:56 10° NNE
CZ-4C R/B 2.9 01:46:23 12° SSE 01:49:42 90° ESE 01:53:13 10° NNW
Cosmos 1328 Rocket 4.0 01:51:11 36° WSW 01:52:26 47° WNW 01:56:45 10° N
NPP 4.1 01:47:44 10° NNE 01:52:53 46° WNW 01:55:12 29° WSW
Cosmos 2150 Rocket 4.3 01:47:37 10° NNW 01:53:07 72° NE 01:58:34 10° SE
Cosmos 1943 Rocket 3.8 01:48:34 10° NW 01:53:30 31° N 01:58:25 10° ENE
Meteor 1-5 Rocket 4.1 01:49:29 10° NNW 01:54:42 56° W 01:59:58 10° S
ADEOS Rocket 3.2 01:48:59 10° SSE 01:55:14 71° ENE 02:00:58 10° NNW
Cosmos 1934 Rocket 4.3 01:49:45 10° NNW 01:55:27 44° W 01:58:47 23° SSW
Cosmos 1933 Rocket 4.5 01:53:14 10° NNW 01:56:57 29° W 01:56:57 29° W
NOSS 7 (H) 4.4 01:57:00 38° W 01:58:09 70° SSW 02:02:16 10° SE
MSX 4.4 01:52:43 10° NNE 01:58:28 58° ESE 02:04:09 10° S
IRS-1D 3.8 01:54:01 10° NNE 01:59:18 59° WNW 02:02:07 27° SW
IRS-P3 4.1 01:54:35 10° NNE 01:59:58 80° WNW 02:03:31 22° SSW
ATLAS 5 CENTAUR R/B 2.1 01:57:35 25° W 02:00:23 69° N 02:05:54 10° E
CBERS-1 4.2 01:57:29 10° NNE 02:02:32 58° WNW 02:05:13 27° SW
ATLAS 2AS CENTAUR R/B 3.0 01:56:26 10° WNW 02:03:45 50° SW 02:10:33 10° SSE
IRIDIUM 106 4.2 01:58:55 10° N 02:04:10 78° W 02:09:24 10° S
Cosmos 1933 4.3 02:04:20 28° W 02:05:13 31° WNW 02:08:54 10° N
Cosmos 1606 4.1 02:06:08 21° WNW 02:06:35 22° WNW 02:09:36 10° N
Cosmos 1733 Rocket 3.1 02:02:12 10° NNW 02:06:36 82° ENE 02:10:56 10° SSE
Cosmos 2173 Rocket 4.1 02:00:32 10° NNW 02:06:54 83° ENE 02:13:19 10° SSE
NOSS 7 (E) 4.3 02:07:10 30° WNW 02:08:38 73° SSW 02:12:30 10° ESE
Genesis I 3.8 02:07:42 23° WNW 02:09:50 51° N 02:13:39 10° ENE
Cosmos 1544 4.4 02:07:16 10° N 02:10:45 42° ENE 02:14:11 10° SE
Cosmos 44 3.4 02:08:32 26° SW 02:11:04 65° SE 02:15:53 10° ENE
ERS-2 2.1 02:07:27 10° SSE 02:11:07 88° ENE 02:14:49 10° NNW
CZ-4B R/B 2.3 02:08:02 10° SE 02:11:13 50° ENE 02:14:30 10° N
Cosmos 1743 3.3 02:07:32 10° N 02:11:20 58° ENE 02:15:06 10° SSE
Exosat Rocket 4.3 02:06:09 10° NW 02:11:53 82° NE 02:19:50 10° SE
Cosmos 192 4.3 02:09:19 24° SW 02:12:21 86° WNW 02:17:21 10° NE
Cosmos 2278 3.7 02:10:19 24° SW 02:13:55 80° NW 02:19:41 10° NE
RESURS DK-1 3.3 02:09:58 10° NW 02:14:05 51° NE 02:18:10 10° ESE
ADEOS II 2.4 02:10:07 10° NNE 02:15:13 51° WNW 02:18:20 23° SW
Cosmos 2285 Rocket 4.4 02:08:50 10° NW 02:15:15 67° NE 02:21:40 10° SE
Meteor 1-10 Rocket 4.4 02:09:41 10° S 02:15:33 80° ESE 02:21:32 10° NNE
Meteor 2-6 Rocket 4.3 02:10:06 12° SSW 02:15:34 90° WNW 02:21:34 10° NNE
IDEFIX/ARIANE 42P 2.6 02:12:04 10° NNE 02:17:23 89° WNW 02:22:24 12° SSW
Cosmos 1869 Rocket 4.0 02:13:21 10° NNW 02:17:24 38° W 02:19:44 21° SSW
SJ 16-02 2.9 02:14:19 10° NW 02:16:14 18° WNW 02:16:14 18° WNW
ERS-1 4.5 02:14:09 10° NNE 02:19:18 74° WNW 02:23:30 16° SSW
CZ-2C R/B 3.0 02:15:49 10° NNE 02:19:36 68° ESE 02:23:26 10° S
Landsat 5 3.7 02:18:33 10° S 02:22:56 53° WSW 02:27:15 10° NNW
CZ-4C R/B 2.8 02:17:29 10° WNW 02:24:04 68° SW 02:31:52 10° SE
Cosmos 2369 3.9 02:20:39 22° WSW 02:24:22 61° NW 02:30:05 10° NE
SL-4 R/B 4.4 02:21:54 10° SSW 02:24:49 17° SSE 02:27:56 10° ESE
Cosmos 468 Rocket 4.4 02:19:42 11° SSW 02:24:49 65° ESE 02:30:02 10° NE
USA 234 3.9 02:19:58 10° SSE 02:25:45 32° SW 02:30:48 13° W
Cosmos 389 Rocket 3.2 02:28:18 26° WSW 02:29:41 36° WNW 02:33:05 10° N
Cosmos 1605 Rocket 4.5 02:24:02 10° NNW 02:29:55 40° W 02:35:49 10° SSW
COSMOS 2441 4.5 02:26:03 10° NNE 02:31:01 82° ESE 02:35:56 10° SSW
CZ-4B R/B 4.1 02:26:36 10° NNE 02:31:20 41° NW 02:34:35 19° WSW
ALOS 4.3 02:29:25 10° NNE 02:33:31 29° E 02:37:36 10° SSE
COSMOS 2455 2.9 02:28:15 10° NW 02:34:21 87° NE 02:40:25 10° SE
Cosmos 2228 Rocket 3.3 02:33:13 18° SW 02:36:21 51° WNW 02:40:44 10° N
Cosmos 972 4.5 02:32:56 19° SW 02:36:25 61° NW 02:41:23 10° NNE
Cosmos 1782 3.8 02:36:39 21° WSW 02:38:28 30° WNW 02:42:05 10° N
USA 305 3.9 02:36:27 19° SW 02:38:40 32° S 02:42:27 10° ESE
Cosmos 2016 Rocket 3.9 02:32:35 10° NNW 02:38:46 88° WSW 02:44:53 10° S
CZ-2C R/B 3.0 02:35:35 10° NNE 02:40:42 62° ESE 02:45:51 10° S
H-2A R/B 2.6 02:36:34 10° S 02:40:48 40° W 02:45:05 10° NNW
NOSS 2-1 (C) 3.8 02:38:08 14° WNW 02:41:26 68° N 02:46:35 10° E
Cosmos 2369 Rocket 3.7 02:36:23 10° NW 02:41:32 34° NNE 02:46:43 10° ENE
Cosmos 2360 Rocket 3.5 02:36:29 10° S 02:41:44 40° ESE 02:46:59 10° NE
USA 306 3.9 02:40:43 18° SW 02:43:03 32° S 02:46:51 10° ESE
Cosmos 372 Rocket 4.2 02:38:33 10° NW 02:43:29 46° WSW 02:48:21 10° S
Cosmos 1975 3.4 02:40:05 10° N 02:44:07 61° ENE 02:48:05 10° SSE
SAR-Lupe-4 3.5 02:40:44 10° SSE 02:44:21 89° WSW 02:47:59 10° NNW
Cosmos 1697 Rocket 3.2 02:40:57 17° WSW 02:45:07 48° NNW 02:50:36 10° NE
Cosmos 2061 Rocket 4.1 02:38:44 10° NNW 02:45:13 84° W 02:51:40 10° S
ATLAS CENTAUR R/B 3.6 02:34:03 10° WNW 02:45:24 46° SW 02:49:58 10° SE
Cosmos 2263 Rocket 3.7 02:42:19 10° WNW 02:45:20 15° W 02:45:20 15° W
NOSS 2-1 (D) 3.8 02:43:03 13° WNW 02:46:30 69° N 02:51:39 10° E
ASTEX 1 4.0 02:42:47 10° N 02:47:23 37° WNW 02:51:25 13° SW
Cosmos 2233 Rocket 4.3 02:42:17 10° NNW 02:48:26 70° ENE 02:54:34 10° SSE
Cosmos 1689 Rocket 2.9 02:45:33 10° SSE 02:48:29 55° ENE 02:51:26 10° N
Meteor 1-4 Rocket 2.6 02:46:55 13° SSW 02:49:55 57° WNW 02:53:29 10° NNE
Cosmos 1844 Rocket 3.1 02:45:25 10° NW 02:50:40 40° WSW 02:55:54 10° S
Cosmos 1980 Rocket 2.4 02:47:19 16° WSW 02:51:54 60° NW 02:57:30 10° NE
Cosmos 1484 Rocket 4.5 02:50:26 10° NNE 02:54:11 37° E 02:57:56 10° SSE
Spot 4 Rocket 4.1 02:50:17 10° NNE 02:55:22 59° WNW 03:00:25 10° SW
Cosmos 2278 Rocket 2.3 02:49:58 10° NW 02:55:41 84° NE 03:01:23 10° SE
Cosmos 1666 3.8 02:52:48 10° NW 02:55:56 24° W 02:59:02 10° SW
Meteor 1-11 Rocket 4.4 02:52:34 10° NNW 02:57:45 35° W 03:02:49 10° SSW
Cosmos 1844 4.0 02:54:03 10° NW 02:59:16 41° WSW 03:04:26 10° S
Cosmos 1864 Rocket 4.5 02:53:51 10° NNW 03:00:10 78° W 03:06:22 10° S
Cosmos 2322 Rocket 2.5 02:55:30 10° SSW 03:01:11 74° SE 03:06:54 10° NE
Cosmos 1725 Rocket 3.9 02:55:10 10° NNW 03:01:23 78° W 03:07:33 10° S
SAR-Lupe-1 4.0 02:59:53 10° S 03:03:26 65° WSW 03:07:03 10° NNW
Resurs 1-4 Rocket 3.7 03:00:36 10° N 03:04:17 20° NW 03:07:58 10° W
Meteor 2-9 Rocket 4.1 02:59:29 10° NNW 03:05:05 86° WSW 03:10:30 10° SSE
Lacrosse 5 2.2 03:01:39 14° WSW 03:05:58 55° S 03:10:56 10° ESE
Cosmos 1818 4.1 03:01:07 10° W 03:06:32 57° N 03:11:56 10° E
Meteor 1-31 Rocket 4.3 03:03:30 10° NNE 03:07:08 38° E 03:10:45 10° SSE
Cosmos 2298 Rocket 4.3 03:02:39 10° NW 03:07:42 44° WSW 03:12:42 10° S
Cosmos 921 Rocket 3.4 03:05:07 12° WSW 03:08:43 43° NW 03:12:48 10° NNE
Cosmos 2100 Rocket 4.3 03:04:01 10° NNW 03:10:04 46° W 03:16:05 10° SSW
CZ-2D R/B 3.8 03:07:22 10° N 03:10:59 19° NW 03:14:34 10° W
Cosmos 1812 3.6 03:08:14 11° SW 03:11:32 32° WNW 03:15:05 10° N
USA 307 4.0 03:08:53 12° WSW 03:12:11 30° S 03:15:56 10° SE
Aureole 2 Rocket 2.3 03:09:07 10° NNW 03:12:14 70° NE 03:15:11 10° SE
deb Chang Zheng 4 4.3 03:08:18 10° NNE 03:12:35 57° ESE 03:16:48 10° S
SL-16 R/B 2.3 03:07:33 10° SW 03:13:15 89° NW 03:18:59 10° NE
Okean 1 4.0 03:09:20 10° S 03:13:19 60° E 03:17:19 10° NNE
Intercosmos 25 3.4 03:11:00 10° S 03:14:14 62° E 03:17:34 10° NNE
Cosmos 1459 Rocket 4.2 03:08:32 10° NNW 03:14:18 45° W 03:20:00 10° SSW
COSMO-SKYMED 1 2.6 03:10:01 10° SSE 03:14:21 88° E 03:18:45 10° NNW
Meteor 1-27 Rocket 3.8 03:08:39 10° SSW 03:14:34 69° WNW 03:20:26 10° NNE
ERBS 3.4 03:12:22 11° SW 03:15:20 35° SSE 03:18:26 10° E
USA 308 4.0 03:12:08 12° WSW 03:15:32 30° S 03:19:17 10° SE
Cosmos 1727 Rocket 4.2 03:12:34 10° SW 03:18:48 56° WNW 03:25:01 10° N
Cosmos 1437 Rocket 3.0 03:16:26 10° S 03:20:16 72° ESE 03:24:12 10° NNE
Cosmos 1802 Rocket 4.2 03:14:27 10° NNW 03:20:23 49° W 03:26:20 10° SSW
Cosmos 1782 Rocket 3.6 03:15:52 10° NNW 03:20:24 85° WSW 03:24:53 10° S
Cosmos 1536 4.1 03:17:40 10° NW 03:20:50 22° W 03:23:58 10° SW
Cosmos 1908 Rocket 3.7 03:17:14 10° NNW 03:21:38 56° W 03:26:00 10° S
CZ-2D R/B 4.4 03:19:12 10° N 03:22:57 31° WNW 03:26:45 10° WSW
USA 116 4.5 03:20:08 10° SE 03:23:07 44° ENE 03:26:10 10° N
ARIANE 5 R/B 3.4 03:20:43 10° N 03:25:14 33° NW 03:29:43 10° WSW
Cosmos 841 Rocket 3.6 03:21:32 10° SSW 03:26:48 86° ESE 03:32:08 10° NE
Cosmos 1125 Rocket 3.8 03:22:05 10° NW 03:27:09 46° WSW 03:32:10 10° S
USA 267 3.9 03:22:41 10° E 03:29:02 51° SSE 03:35:24 10° SW
Cosmos 2219 Rocket 3.8 03:24:32 10° S 03:29:43 38° ESE 03:34:56 10° NE
CZ-4B R/B 4.3 03:26:37 10° NNE 03:30:06 38° E 03:33:29 10° SSE
Cosmos 2208 Rocket 4.2 03:26:06 10° SSW 03:31:18 79° ESE 03:36:31 10° NE
Cosmos 1703 Rocket 4.2 03:27:25 10° S 03:31:43 62° E 03:36:04 10° NNE
Cosmos 1763 Rocket 3.6 03:26:38 10° SW 03:31:55 63° NW 03:37:11 10° NNE
Okean 1-7 3.7 03:28:26 10° S 03:32:37 59° E 03:36:49 10° NNE
Cosmos 1814 Rocket 4.2 03:27:42 10° SSW 03:32:58 81° ESE 03:38:19 10° NE
Cosmos 1943 Rocket 3.1 03:32:59 10° NW 03:38:25 50° NNE 03:43:47 10° ESE
Cosmos 1707 Rocket 4.2 03:34:33 10° SW 03:38:36 37° WNW 03:42:43 10° N
NOSS 2-1 (E) 3.9 03:34:57 10° WNW 03:39:07 84° NNE 03:44:51 10° ESE
Cosmos 2123 Rocket 4.1 03:33:24 10° SSW 03:39:43 85° WNW 03:46:06 10° NNE
MSX 4.3 03:34:41 10° NNE 03:40:09 44° NW 03:45:34 10° SW
ADEOS Rocket 3.6 03:35:36 10° SSW 03:41:16 34° W 03:46:32 10° NNW
